Location: Nairn
(57.5833°N, 3.8667°W)
Time: 17:07:53
(UTC+00:00)

S-56A Canister/Altair - Pass Details

Date: 29 November 2020
Orbit: 633 x 2499 km, 38.9° (Epoch: 19 January)

Event Time Altitude Azimuth Distance (km) Brightness Sun altitude
Rises 23:24:49 0° 254° (WSW) 4,571 - -53.4°
Reaches altitude 10° 23:30:16 10° 229° (SW) 3,123 - -53.6°
Maximum altitude 23:33:13 13° 206° (SSW) 2,675 - -53.7°
Drops below altitude 10° 23:35:49 10° 181° (S) 2,660 - -53.7°
Sets 23:39:39 0° 152° (SSE) 3,309 - -53.8°
